Weather Service Report


724 
ASUS43 KDTX 240310
RWRMI 
MICHIGAN HOURLY REGIONAL WEATHER ROUNDUP
NATIONAL WEATHER SERVICE DETROIT/PONTIAC MI
1100 PM EDT SAT JUL 23 2016

NOTE: "FAIR" INDICATES FEW OR NO CLOUDS BELOW 12,000 FEET WITH NO
SIGNIFICANT WEATHER AND/OR OBSTRUCTION TO VISIBILITY.

MIZ047>049-052>055-059>063-066>070-074>076-081>083-240400-
SOUTHEAST LOWER MICHIGAN
  
CITY           SKY/WX    TMP DP  RH WIND       PRES   REMARKS
ADRIAN         CLOUDY    78  71  79 CALM      29.99R                  
ALMA           PTCLDY    77  67  71 CALM      29.97R                  
ANN ARBOR      CLOUDY    80  63  55 E5        29.99R                  
BAD AXE        MOCLDY    68  60  75 CALM      30.01R                  
CARO           MOCLDY    71  60  67 E5        29.99S                  
DETROIT CITY   PTCLDY    78  62  57 E6        29.99S                  
DETROIT        CLOUDY    83  60  45 E6        30.00R                  
FLINT          MOCLDY    79  63  57 SE8       29.99R                  
GROSSE ILE     MOCLDY    78  66  65 NE3       29.98R                  
HOWELL         CLOUDY    79  62  56 E9        30.00R                  

CITY           SKY/WX    TMP DP  RH WIND       PRES   REMARKS
JACKSON        MOCLDY    79  71  76 S3        29.99R                  
LAMBERTVILLE   MOCLDY    77  71  81 CALM      29.99R                  
LANSING        CLOUDY    79  65  62 CALM      29.98R                  
LAPEER         FAIR      71  62  71 CALM      30.01S                  
MASON          CLOUDY    75  67  76 CALM      29.98S                  
MONROE         CLOUDY    77  71  80 CALM      29.99R                  
MT. CLEMENS    MOCLDY    73  64  72 E7        29.98R                  
PONTIAC        CLOUDY    78  61  55 E6        30.00S                  
PORT HOPE        N/A     71  64  78 VRB5      29.99R                  
PORT HURON     PTCLDY    63  61  94 CALM      30.01S                  
TRI CITIES     CLEAR     75  64  68 E6        29.97S                  
MIDLAND        FAIR      73  67  82 E3        29.95S                  
TROY           PTCLDY    82  55  39 CALM      30.02R                  
SAGINAW HB     PTCLDY    73  64  73 E6        29.97S                  
$$
MIZ043>046-050>051-056>058-064>065-071>073-077>080-240400-
SOUTHWEST LOWER MICHIGAN
  
CITY           SKY/WX    TMP DP  RH WIND       PRES   REMARKS
BATTLE CREEK   CLOUDY    77  67  71 SW7       30.00R                  
BENTON HARBOR  LGT RAIN  76  73  91 E15       29.91F FOG              
BIG RAPIDS     CLOUDY    72  71  96 CALM      29.96R                  
COLDWATER      MOCLDY    75  72  88 CALM      30.00S                  
FREMONT        FAIR      79  76  91 SE3       29.95S                  
HOLLAND        LGT RAIN  76  71  85 S8        29.95F                  
GRAND RAPIDS   CLOUDY    82  71  69 W3        29.97R                  
IONIA          FAIR      78  66  68 S7        29.97R                  
KALAMAZOO      LGT RAIN  80  68  66 SW6       29.99R                  
LUDINGTON      CLOUDY    72  69  91 CALM      29.93S                  
MARSHALL       MOCLDY    76  73  88 CALM      29.98F                  
MOUNT PLEASANT CLOUDY    80  65  60 S3        29.96R                  
MUSKEGON       LGT RAIN  78  74  87 CALM      29.96R                  
SOUTH HAVEN    LGT RAIN  75  73  93 SE9       29.94F                  
$$
MIZ016>042-240400-
NORTHERN LOWER MICHIGAN
  
CITY           SKY/WX    TMP DP  RH WIND       PRES   REMARKS
ALPENA         PTCLDY    68  61  78 CALM      29.98S                  
BEAVER ISLAND  CLOUDY    70  64  79 SE3       29.93F                  
BELLAIRE       PTCLDY    69  67  92 CALM      29.94S                  
CADILLAC       CLOUDY    68  64  86 CALM      29.98R                  
CHARLEVOIX     CLOUDY    73  66  79 E3        29.97S                  
FRANKFORT      MOCLDY    73  60  65 CALM      29.93S                  
GAYLORD        CLOUDY    76  59  55 SE9       29.99R                  
GRAYLING       CLOUDY    73  63  68 E6        29.99S                  
HARBOR SPRINGS CLOUDY    74  63  67 NE5       29.94F                  
HOUGHTON LAKE  PTCLDY    73  60  63 SE5       29.99R                  
MANISTEE       CLOUDY    72  65  78 CALM      29.93S                  
OSCODA         MOCLDY    68  58  70 CALM      29.99R                  
PELLSTON       CLOUDY    69  65  86 CALM      29.95F                  
ROGERS CITY    PTCLDY    75  57  54 S8        29.98S                  
TRAVERSE CITY  PTCLDY    73  65  75 CALM      29.92R                  
$$
MIZ007>008-015-240400-
EASTERN UPPER MICHIGAN
  
CITY           SKY/WX    TMP DP  RH WIND       PRES   REMARKS
KINROSS        MOCLDY    71  62  73 E3        29.96S                  
MACKINAC ISLAN MOCLDY    71  57  60 SE6       29.96R                  
NEWBERRY       CLOUDY    68  65  89 CALM      29.94S                  
S. S. MARIE    CLOUDY    71  64  78 CALM      29.94F                  
MUNISING         N/A     74  63  68 S3        29.89F                  
$$
MIZ004>006-011>014-085-240400-
CENTRAL UPPER MICHIGAN
  
CITY           SKY/WX    TMP DP  RH WIND       PRES   REMARKS
MANISTIQUE     CLOUDY    67  64  90 CALM      29.92S                  
ESCANABA       CLOUDY    73  66  78 SE8       29.89S                  
MENOMINEE      CLOUDY    76  65  68 S7        29.91R                  
SAWYER-GWINN   CLOUDY    73  59  63 S7        29.92S                  
$$
MIZ001>003-009>011-084-240400-
WESTERN UPPER MICHIGAN
  
CITY           SKY/WX    TMP DP  RH WIND       PRES   REMARKS
IRON MOUNTAIN  CLOUDY    74  63  68 SE5       29.89F                  
HOUGHTON       CLOUDY    66  58  75 E10       29.88S                  
COPPER HARBOR    N/A     70  59  68 VRB7      29.87F                  
IRONWOOD       CLOUDY    73  70  88 S6        29.83F                  
$$

ABBREVIATIONS USED IN REMARKS
   TC - TEMPERATURE IN CELSIUS
  WCI - WIND CHILL INDEX
   HX - HEAT INDEX
  VSB - VISIBILITY

  

Return to Home page


Western Regional Climate Center, wrcc@dri.edu